Find Starlink 34913

NORAD ID: 65369 Int'l Des: 2025-190 Owner: SPXS Country: US Constellation: starlink operational
LEOCIRCULAR

Current View

Loading 3D Globe...

About Starlink 34913

Description loading...

Upcoming Passes

Passes for default location (London). Set your location on the main map for personalized predictions.

Altitude History

Loading altitude history...

Two-Line Element Set

1 65369U 25190U 26150.16668980 -.00012986 00000-0 -38433-3 0 9996
2 65369 53.1598 149.7473 0001335 89.5745 117.4506 15.33537416 5925
Epoch: May 30, 2026 • Age: 6 hours

Current Status

Altitude 479.7 km
Velocity 7.63 km/s
Sub-Earth Point -41.12°S, 34.54°W
Launch Date Aug 28, 2025
Age 0.7 years
Type internet

Technical Details

Classification Payload
Mass 575.00 kg
Dry Mass 530.00 kg
Total Mass 575.00 kg
Length 0.30 m
Diameter 4.10 m
Span 29.00 m
Shape Box + pan
Manufacturer SPXS
Bus Type Starlink V2MO
Phase Status In Orbit
Owner/State SPXS/US

Most Searched